Regional Weather Roundup
Issued by NWS

Home | Current Version | Previous Version | Graphics & Text | Print | Product List | Glossary On
Versions: 1 2 3 4 5 6 7 8 9 10 11 12 13 14 15 16 17 18 19 20 21 22 23 24 25 26 27 28 29 30 31 32 33 34 35 36 37 38 39 40 41 42 43 44 45 46 47 48 49 50
000
ASUS43 KLMK 242010
RWRKY
KENTUCKY REGIONAL WEATHER ROUNDUP
NATIONAL WEATHER SERVICE LOUISVILLE KY
300 PM EST SAT JAN 24 2015

NOTE "FAIR" INDICATES FEW OR NO CLOUDS BELOW 12,000 FEET
WITH NO SIGNIFICANT WEATHER AND/OR OBSTRUCTIONS TO VISIBILITY.

KYZ001>023-026-027-061>063-070>075-242100-
WESTERN AND SOUTH CENTRAL KENTUCKY

CITY           SKY/WX    TMP DP  RH WIND       PRES   REMARKS
PADUCAH        SUNNY     49  30  48 W14       29.85F
HENDERSON      SUNNY     48  30  49 W10       29.82F
OWENSBORO      SUNNY     47  32  56 NW9       29.82F
HOPKINSVILLE   SUNNY     48  32  53 W14       29.85F
BOWLING GREEN  SUNNY     45  34  65 W10       29.84S
GLASGOW        SUNNY     44  33  64 SW17      29.82R
$$

KYZ024-025-028>034-038-045-046-053-242100-
NORTH CENTRAL KENTUCKY

CITY           SKY/WX    TMP DP  RH WIND       PRES   REMARKS
LOUISVILLE/SDF CLOUDY    43  31  62 W9        29.77F
LOUISVILLE/LOU CLOUDY    41  30  65 SW10      29.77S
FORT KNOX      PTSUNNY   38  31  74 SW12      29.77S WCI  31
$$

KYZ035>037-039>044-047>052-055>060-089>105-242100-
NORTHEAST KENTUCKY

CITY           SKY/WX    TMP DP  RH WIND       PRES   REMARKS
LEXINGTON      PTSUNNY   34  28  79 SW17      29.75S WCI  23
COVINGTON      CLOUDY    40  26  57 W14G22    29.70R WCI  32
FRANKFORT      CLOUDY    35  28  75 SW12G20   29.74F WCI  27
$$

KYZ054-064>069-076>088-106>120-242100-
SOUTHEAST KENTUCKY

CITY           SKY/WX    TMP DP  RH WIND       PRES   REMARKS
JACKSON        CLOUDY    33  29  85 VRB7      29.75F WCI  27
LONDON         CLOUDY    35  26  69 SW10      29.80F WCI  27
SOMERSET       CLOUDY    34  30  86 SW8G18    29.81F WCI  27
MIDDLESBORO    SUNNY     40  28  60 W5        29.82F
MONTICELLO     PTCLDY    39  33  79 SW10      29.84F WCI  32
$$




USA.gov is the U.S. government's official web portal to all federal, state and local government web resources and services.